HAWK-2A

Last updated on Fri Dec 29 2023 00:03:29 GMT+0000 (Coordinated Universal Time)

1 47505U 21006CW 23361.66184706 .00007476 00000+0 33535-3 0 9998 2 47505 97.3596 51.2740 0009569 138.0118 222.1853 15.21445767161814
UTC large
Height (km)
Speed (km/s)
/
Latitude / Longitude
Inclination (degrees)
Orbital Period (minutes)
Azimuth
Elevation
Range (km)
Doppler Factor

Next 0 passes for location: London (51.5072 / 0.1276)

Sorry there are no passes over London.